Sardis Lake Weather Center

Moon Phase Calendar



Sardis Lake Water Level
Online Cameras

 


      

Current Conditions in University
6/15/2024 3:05:11 AM

69°F
Feels Like 70
Clear
Humidity
100%
Pressure
29.94"
Wind
0
Dew Point
69°F
UV Index
0/10 (Low)
Visibility
6 mi

Hourly Forecast

Date & Time Sat, Jun 15
3:00 AM
Sat, Jun 15
4:00 AM
Sat, Jun 15
5:00 AM
Sat, Jun 15
6:00 AM
Sat, Jun 15
7:00 AM
Sat, Jun 15
8:00 AM
Sat, Jun 15
9:00 AM
Sat, Jun 15
10:00 AM
Sat, Jun 15
11:00 AM
Sat, Jun 15
12:00 PM
Sat, Jun 15
1:00 PM
Sat, Jun 15
2:00 PM
Sat, Jun 15
3:00 PM
Sat, Jun 15
4:00 PM
Sat, Jun 15
5:00 PM
Sat, Jun 15
6:00 PM
Sat, Jun 15
7:00 PM
Sat, Jun 15
8:00 PM
Sat, Jun 15
9:00 PM
Sat, Jun 15
10:00 PM
Sat, Jun 15
11:00 PM
Sun, Jun 16
12:00 AM
Sun, Jun 16
1:00 AM
Sun, Jun 16
2:00 AM
Sun, Jun 16
3:00 AM
Sun, Jun 16
4:00 AM
Sun, Jun 16
5:00 AM
Sun, Jun 16
6:00 AM
Sun, Jun 16
7:00 AM
Sun, Jun 16
8:00 AM
Sun, Jun 16
9:00 AM
Sun, Jun 16
10:00 AM
Sun, Jun 16
11:00 AM
Sun, Jun 16
12:00 PM
Sun, Jun 16
1:00 PM
Sun, Jun 16
2:00 PM
Sun, Jun 16
3:00 PM
Sun, Jun 16
4:00 PM
Sun, Jun 16
5:00 PM
Sun, Jun 16
6:00 PM
Sun, Jun 16
7:00 PM
Sun, Jun 16
8:00 PM
Sun, Jun 16
9:00 PM
Sun, Jun 16
10:00 PM
Sun, Jun 16
11:00 PM
Mon, Jun 17
12:00 AM
Mon, Jun 17
1:00 AM
Mon, Jun 17
2:00 AM
Condition
Clear

Clear

Clear

Clear

Clear

Clear

Clear

Clear

Clear

Clear

Clear

Clear

Clear

Clouds

Clouds

Clouds

Clouds

Clouds

Clouds

Clouds

Clouds

Clouds

Clouds

Clear

Clear

Clear

Clear

Clear

Clear

Clear

Clear

Clear

Clear

Clear

Clear

Clouds

Clouds

Clouds

Clouds

Clouds

Clouds

Clouds

Clouds

Clouds

Clouds

Clouds

Clouds

Clouds
Temperature 69°F69°F69°F69°F72°F78°F83°F87°F90°F93°F96°F97°F97°F96°F94°F91°F85°F83°F81°F78°F77°F75°F75°F75°F74°F74°F72°F72°F75°F80°F85°F89°F92°F95°F97°F98°F98°F95°F91°F89°F88°F83°F81°F79°F78°F76°F76°F74°F
Feels Like 70°F70°F70°F70°F72°F78°F86°F91°F94°F97°F100°F100°F101°F100°F99°F98°F92°F88°F84°F79°F77°F76°F76°F76°F75°F75°F73°F73°F76°F80°F89°F94°F97°F100°F101°F101°F101°F99°F97°F96°F97°F88°F85°F79°F79°F77°F76°F75°F
Cloudiness 0%0%0%1%2%0%0%0%0%0%0%0%2%12%17%27%42%100%83%55%41%33%28%0%0%1%0%0%0%0%0%0%0%0%0%18%29%41%48%51%44%32%33%49%62%69%74%100%
Visibility 6 mi6 mi6 mi6 mi6 mi6 mi6 mi6 mi6 mi6 mi6 mi6 mi6 mi6 mi6 mi6 mi6 mi6 mi6 mi6 mi6 mi6 mi6 mi6 mi6 mi6 mi6 mi6 mi6 mi6 mi6 mi6 mi6 mi6 mi6 mi6 mi6 mi6 mi6 mi6 mi6 mi6 mi6 mi6 mi6 mi6 mi6 mi6 mi
Precipitation 0%0%0%0%0%0%0%0%0%0%0%0%0%0%0%0%0%0%0%0%0%0%0%0%0%13%11%20%18%0%0%0%0%0%0%0%0%0%0%0%0%0%0%2%0%0%0%0%
Humidity 100%95%91%88%84%69%61%54%48%42%39%37%37%38%42%53%67%68%71%76%76%75%73%74%77%78%85%86%83%73%62%53%47%41%37%34%33%41%51%56%64%69%69%68%72%75%76%79%
Dew Point 69°F67°F66°F65°F67°F67°F68°F69°F68°F67°F67°F66°F66°F66°F68°F71°F73°F71°F70°F69°F68°F67°F66°F66°F66°F67°F67°F67°F70°F70°F70°F70°F69°F68°F67°F65°F64°F67°F69°F71°F74°F71°F70°F68°F68°F67°F67°F67°F
Pressure 29.94"29.94"29.94"29.97"29.97"29.97"29.97"29.97"29.97"29.94"29.94"29.91"29.91"29.88"29.88"29.88"29.88"29.88"29.88"29.91"29.91"29.91"29.91"29.91"29.91"29.91"29.94"29.94"29.94"29.97"29.97"29.97"29.94"29.94"29.94"29.91"29.91"29.91"29.88"29.88"29.88"29.91"29.91"29.94"29.97"29.97"29.97"29.97"
Wind Speed 2 mph2.4 mph2.3 mph3 mph3.2 mph2.9 mph3.3 mph2.9 mph3.6 mph2.5 mph2 mph0.9 mph1 mph2.1 mph2 mph1.7 mph1 mph0.6 mph0.3 mph0.9 mph4.4 mph4.8 mph4.9 mph3.8 mph2.8 mph4.4 mph2.3 mph2 mph3.3 mph5.2 mph5.5 mph5.5 mph5.9 mph6.5 mph6.5 mph6.8 mph7.8 mph5.9 mph3.4 mph4.1 mph1.1 mph1.1 mph4.4 mph7.1 mph5.4 mph4.4 mph5.1 mph4.4 mph
Wind
Direction
93°
E
119°
ESE
102°
ESE
72°
ENE
60°
ENE
82°
E
68°
ENE
63°
ENE
41°
NE
62°
ENE
84°
E
104°
ESE
168°
SSE
192°
SSW
183°
S
159°
SSE
159°
SSE
138°
SE
247°
WSW
89°
E
109°
ESE
94°
E
116°
ESE
135°
SE
120°
ESE
135°
SE
142°
SE
79°
E
117°
ESE
127°
SE
129°
SE
144°
SE
151°
SSE
154°
SSE
161°
SSE
157°
SSE
152°
SSE
150°
SSE
151°
SSE
146°
SE
128°
SE
42°
NE
108°
ESE
146°
SE
217°
SW
166°
SSE
167°
SSE
157°
SSE

Daily Forecast

Date High Low Precip. Humidity
Today
Jun 15

Clear
97 °F
69 °F
0%
42%
Sunday
Jun 16

Clear
98 °F
72 °F
20%
41%
Monday
Jun 17

Rain
81 °F
71 °F
100%
91%
Tuesday
Jun 18

Rain
71 °F
70 °F
100%
98%
Wednesday
Jun 19

Rain
84 °F
71 °F
100%
93%
Thursday
Jun 20

Clouds
89 °F
69 °F
0%
44%
Friday
Jun 21

Clear
90 °F
69 °F
0%
43%
Saturday
Jun 22

Rain
91 °F
74 °F
60%
49%
Sunday
Jun 23

Rain
90 °F
72 °F
49%
52%
Monday
Jun 24

Rain
84 °F
74 °F
100%
87%
Tuesday
Jun 25

Rain
90 °F
75 °F
100%
73%
Wednesday
Jun 26

Rain
87 °F
74 °F
100%
90%
Thursday
Jun 27

Rain
85 °F
73 °F
100%
81%
Friday
Jun 28

Rain
90 °F
73 °F
27%
55%
Saturday
Jun 29

Rain
92 °F
72 °F
20%
48%
Sunday
Jun 30

Rain
83 °F
74 °F
100%
90%

Temperature 8-14 Day Outlook



Precipitation 8-14 Day Outlook






About Us
Contact Us
Site Map
Search Site
Advertise With Us
   
Sardis.USLakes.info
THE SARDIS LAKE WEBSITE

Copyright 2024, Lakes Online
Privacy    |    Legal